User: anonymous   Login
Location: Unspecified
(0.0000°N, 0.0000°E)
Time: 15:40:41
(UTC+00:00)
Language:

PAYLOAD C - Orbit

View from above orbital plane
View from above orbital plane
View from above satellite
View from above satellite

Ground track
Ground track

The orbit data is extracted from the following two-line orbital elements,

1 27057U 01058C   24106.21251828  .00000032  00000-0  11905-3 0  9991
2 27057  82.5491   1.8225 0001562  70.2238 289.9021 12.61586955 26856
Epoch (UTC): 15 April 2024 05:06:01
Eccentricity: 0.0001562
inclination: 82.5491°
perigee height: 1415 km
apogee height: 1417 km
right ascension of ascending node: 1.8225°
argument of perigee: 70.2238°
revolutions per day: 12.61586955
mean anomaly at epoch: 289.9021°
orbit number at epoch: 2685

The dashed part of the orbit path shows where the satellite is in the earth's shadow,  

DLR